Location: Cambroso
(45.2833°N, 12.0850°E)
Time: 16:28:45
(UTC+00:00)

Cosmos 1328 - Pass Details

Date: 21 January 2021
Orbit: 528 x 555 km, 82.5° (Epoch: 26 February)

Event Time Altitude Azimuth Distance (km) Brightness Sun altitude
Rises 17:44:52 0° 170° (S) 2,716 7.4 -17.6°
Reaches altitude 10° 17:47:06 10° 163° (SSE) 1,824 6.4 -18.0°
Enters shadow 17:50:14 38° 118° (ESE) 857 4.4 -18.5°
